Chadron, NE

1:04 AM MDT on May 23, 2018 (GMT -0600)
Chadron Municipal

Weather History for KCDR - February, 2013

Change the Weather History Date:

Friday, February 8, 2013

  Actual Average Record
Temperature  
Mean Temperature 38 °F 26 °F  
Max Temperature 55 °F 40 °F 72 °F (1954)
Min Temperature 21 °F 11 °F -31 °F (1936)
Degree Days  
Heating Degree Days 27 39  
Month to date heating degree days 226 317  
Since 1 July heating degree days 4164 4516  
Cooling Degree Days 0 0  
Month to date cooling degree days 0 0  
Year to date cooling degree days 0 0  
Moisture  
Dew Point 21 °F    
Average Humidity 56    
Maximum Humidity 88    
Minimum Humidity 24    
Precipitation  
Precipitation 0.00 in 0.02 in 0.28 in (1923)
Month to date precipitation 0.00 0.14  
Year to date precipitation 0.48 0.50  
Sea Level Pressure  
Sea Level Pressure 29.91 in    
Wind  
Wind Speed 8 mph (South)    
Max Wind Speed 28 mph    
Max Gust Speed 35 mph    
Visibility 10 miles    
Events      
T = Trace of Precipitation, MM = Missing Value Source: NWS Daily Summary

Daily Weather History Graph

Daily Weather History Graph

Search for Another Location

Airport or City:

Astronomy

Feb. 08, 2013 Rise Set
Actual Time 6:58 AM MST 5:15 PM MST
Civil Twilight 6:29 AM MST 5:44 PM MST
Nautical Twilight 5:55 AM MST 6:18 PM MST
Astronomical Twilight 5:22 AM MST 6:51 PM MST
Moon 5:30 AM MST (2/8) 3:50 PM MST (2/8)
Length of Visible Light 11h 15m
Length of Day
10h 16m
Waning Crescent, 3% of the Moon is Illuminated
Feb 8
Waning Crescent
Feb 10
New
Feb 17
First Quarter
Feb 25
Full
Mar 4
Last Quarter

Hourly Weather History & Observations

Time (MST) Temp. Windchill Dew Point Humidity Pressure Visibility Wind Dir Wind Speed Gust Speed Precip Events Conditions
12:53 AM 39.0 °F 28.5 °F 19.0 °F 45% 30.01 in 10.0 mi South 23.0 mph 34.5 mph N/A   Clear
1:53 AM 37.9 °F 27.3 °F 19.0 °F 47% 29.98 in 10.0 mi SSW 21.9 mph - N/A   Clear
2:53 AM 35.1 °F 24.8 °F 19.0 °F 52% 30.00 in 10.0 mi SSW 17.3 mph - N/A   Clear
3:53 AM 35.1 °F 25.5 °F 19.0 °F 52% 29.98 in 10.0 mi SSW 15.0 mph - N/A   Clear
4:53 AM 34.0 °F 26.0 °F 19.0 °F 54% 29.99 in 10.0 mi South 10.4 mph - N/A   Clear
5:53 AM 34.0 °F 25.5 °F 19.0 °F 54% 30.00 in 10.0 mi South 11.5 mph - N/A   Clear
6:53 AM 32.0 °F 22.1 °F 19.0 °F 59% 30.01 in 10.0 mi South 13.8 mph - N/A   Clear
7:53 AM 36.0 °F 29.6 °F 19.9 °F 52% 30.01 in 10.0 mi South 8.1 mph - N/A   Clear
9:53 AM 46.9 °F - 21.0 °F 36% 29.95 in 10.0 mi South 8.1 mph - N/A   Clear
10:53 AM 51.1 °F - 19.9 °F 29% 29.90 in 10.0 mi Variable 3.5 mph - N/A   Clear
11:53 AM 53.1 °F - 19.9 °F 27% 29.86 in 10.0 mi Calm Calm - N/A   Clear
12:53 PM 54.0 °F - 18.0 °F 24% 29.84 in 10.0 mi Calm Calm - N/A   Clear
1:53 PM 53.1 °F - 25.0 °F 34% 29.82 in 10.0 mi ESE 6.9 mph - N/A   Clear
2:53 PM 53.1 °F - 23.0 °F 31% 29.82 in 10.0 mi NNE 4.6 mph - N/A   Clear
3:53 PM 53.1 °F - 21.0 °F 29% 29.81 in 10.0 mi NE 6.9 mph - N/A   Clear
4:53 PM 46.0 °F 40.6 °F 26.1 °F 46% 29.83 in 10.0 mi SSE 11.5 mph - N/A   Clear
5:53 PM 37.9 °F 32.7 °F 25.0 °F 60% 29.85 in 10.0 mi SE 6.9 mph - N/A   Partly Cloudy
6:53 PM 35.1 °F 27.9 °F 24.1 °F 64% 29.87 in 10.0 mi North 9.2 mph - N/A   Clear
7:53 PM 30.9 °F 27.5 °F 23.0 °F 72% 29.87 in 10.0 mi NE 3.5 mph - N/A   Clear
8:53 PM 28.0 °F - 21.9 °F 78% 29.88 in 10.0 mi Calm Calm - N/A   Clear
9:53 PM 25.0 °F - 21.9 °F 88% 29.88 in 10.0 mi Calm Calm - N/A   Clear
10:53 PM 25.0 °F - 21.0 °F 85% 29.86 in 10.0 mi Calm Calm - N/A   Clear
11:53 PM 21.9 °F 14.5 °F 19.0 °F 89% 29.87 in 10.0 mi SW 5.8 mph - N/A   Clear